Weather History for Gustavus, AK

Change the Weather History Date:

Friday, September 27, 2013

  Actual Average Record
Temperature  
Mean Temperature 50 °F -  
Max Temperature 53 °F 54 °F 60 °F (1976)
Min Temperature 48 °F 37 °F 23 °F (1983)
Degree Days  
Heating Degree Days 14    
Moisture  
Dew Point 42 °F    
Average Humidity 71    
Maximum Humidity 87    
Minimum Humidity 54    
Precipitation  
Precipitation 0.00 in - - ()
Sea Level Pressure  
Sea Level Pressure 29.37 in    
Wind  
Wind Speed 11 mph (SE)    
Max Wind Speed 22 mph    
Max Gust Speed 31 mph    
Visibility 10 miles    
Events      
Averages and records for this station are not official NWS values.
T = Trace of Precipitation, MM = Missing Value Source: NWS Daily Summary

Daily Weather History Graph

Daily Weather History Graph

Search for Another Location

Airport:

Trip Planner

Search our weather history database for the weather conditions in past years. The results will help you decide how hot, cold, wet, or windy it might be!

Date:

Astronomy

Sep. 27, 2013 Rise Set
Actual Time 6:59 AM AKDT 6:46 PM AKDT
Civil Twilight 6:19 AM AKDT 7:26 PM AKDT
Nautical Twilight 5:32 AM AKDT 8:12 PM AKDT
Astronomical Twilight 4:43 AM AKDT 9:01 PM AKDT
Moon 11:47 PM AKDT (9/27) 3:40 PM AKDT (9/27)
Length of Visible Light 13h 06m
Length of Day
11h 47m
Last Quarter, 44% of the Moon is Illuminated
Sep 27
Last Quarter
Oct 4
New
Oct 11
First Quarter
Oct 18
Full
Oct 26
Last Quarter

Hourly Weather History & Observations

Time (AKDT) Temp. Dew Point Humidity Pressure Visibility Wind Dir Wind Speed Gust Speed Precip Events Conditions
12:16 AM 48.2 °F 44.6 °F 87% 29.65 in 10.0 mi SE 6.9 mph - N/A   Overcast
12:36 AM 48.2 °F 44.6 °F 87% 29.64 in 10.0 mi SE 6.9 mph - N/A   Overcast
12:56 AM 48.2 °F 44.6 °F 87% 29.64 in 10.0 mi SE 8.1 mph - N/A   Overcast
1:16 AM 48.2 °F 44.6 °F 87% 29.63 in 10.0 mi SE 8.1 mph - N/A   Overcast
1:36 AM 48.2 °F 44.6 °F 87% 29.63 in 10.0 mi SE 8.1 mph - N/A   Mostly Cloudy
1:56 AM 48.2 °F 44.6 °F 87% 29.63 in 10.0 mi SE 5.8 mph - N/A   Overcast
2:16 AM 48.2 °F 44.6 °F 87% 29.63 in 10.0 mi SE 5.8 mph - N/A   Overcast
2:36 AM 48.2 °F 44.6 °F 87% 29.61 in 10.0 mi SE 9.2 mph - N/A   Overcast
2:56 AM 50.0 °F 44.6 °F 82% 29.61 in 10.0 mi SSE 8.1 mph - N/A   Overcast
3:16 AM 50.0 °F 44.6 °F 82% 29.60 in 10.0 mi SE 8.1 mph - N/A   Overcast
3:36 AM 50.0 °F 44.6 °F 82% 29.60 in 10.0 mi ESE 10.4 mph - N/A   Overcast
3:56 AM 50.0 °F 44.6 °F 82% 29.59 in 10.0 mi SE 10.4 mph - N/A   Overcast
4:16 AM 50.0 °F 44.6 °F 82% 29.59 in 10.0 mi SE 9.2 mph - N/A   Overcast
4:36 AM 50.0 °F 44.6 °F 82% 29.58 in 10.0 mi SE 6.9 mph - N/A   Overcast
4:56 AM 50.0 °F 44.6 °F 82% 29.58 in 10.0 mi SE 8.1 mph - N/A   Overcast
5:16 AM 50.0 °F 44.6 °F 82% 29.57 in 10.0 mi SE 10.4 mph - N/A   Overcast
5:36 AM 50.0 °F 44.6 °F 82% 29.56 in 10.0 mi SSE 9.2 mph - N/A   Overcast
5:56 AM 50.0 °F 44.6 °F 82% 29.55 in 10.0 mi SE 12.7 mph 17.3 mph N/A   Overcast
6:16 AM 50.0 °F 44.6 °F 82% 29.55 in 10.0 mi SE 9.2 mph - N/A   Overcast
6:36 AM 50.0 °F 42.8 °F 76% 29.54 in 10.0 mi SE 8.1 mph - N/A   Overcast
6:56 AM 50.0 °F 42.8 °F 76% 29.53 in 10.0 mi SE 10.4 mph 16.1 mph N/A   Overcast
7:16 AM 51.8 °F 42.8 °F 71% 29.52 in 10.0 mi SE 11.5 mph 18.4 mph N/A   Overcast
7:36 AM 50.0 °F 44.6 °F 82% 29.51 in 10.0 mi SE 11.5 mph 16.1 mph N/A   Overcast
7:56 AM 51.8 °F 44.6 °F 76% 29.51 in 10.0 mi SE 12.7 mph - N/A   Overcast
8:16 AM 51.8 °F 42.8 °F 71% 29.50 in 10.0 mi SE 12.7 mph - N/A   Overcast
8:36 AM 51.8 °F 42.8 °F 71% 29.49 in 10.0 mi SE 16.1 mph - N/A   Overcast
8:56 AM 51.8 °F 44.6 °F 76% 29.49 in 10.0 mi SE 15.0 mph 21.9 mph N/A   Overcast
9:16 AM 51.8 °F 44.6 °F 76% 29.48 in 10.0 mi SE 17.3 mph 20.7 mph N/A   Overcast
9:36 AM 51.8 °F 44.6 °F 76% 29.47 in 10.0 mi SE 17.3 mph 21.9 mph N/A   Overcast
9:56 AM 51.8 °F 44.6 °F 76% 29.46 in 10.0 mi SE 15.0 mph 20.7 mph N/A   Overcast
10:16 AM 51.8 °F 44.6 °F 76% 29.45 in 10.0 mi ESE 13.8 mph 19.6 mph N/A   Overcast
10:36 AM 51.8 °F 44.6 °F 76% 29.44 in 10.0 mi SE 15.0 mph 21.9 mph N/A   Overcast
10:56 AM 51.8 °F 44.6 °F 76% 29.44 in 10.0 mi SE 15.0 mph 21.9 mph N/A   Overcast
11:16 AM 51.8 °F 44.6 °F 76% 29.42 in 10.0 mi SSE 11.5 mph 19.6 mph N/A   Overcast
11:36 AM 51.8 °F 44.6 °F 76% 29.41 in 10.0 mi SE 16.1 mph 20.7 mph N/A   Overcast
11:56 AM 51.8 °F 44.6 °F 76% 29.40 in 10.0 mi SE 17.3 mph 25.3 mph N/A   Overcast
12:16 PM 51.8 °F 44.6 °F 76% 29.40 in 10.0 mi SE 16.1 mph 24.2 mph N/A   Overcast
12:36 PM 51.8 °F 44.6 °F 76% 29.38 in 10.0 mi SE 13.8 mph 21.9 mph N/A   Overcast
12:56 PM 51.8 °F 44.6 °F 76% 29.38 in 10.0 mi SE 15.0 mph 25.3 mph N/A   Mostly Cloudy
1:16 PM 51.8 °F 44.6 °F 76% 29.36 in 10.0 mi SE 15.0 mph 24.2 mph N/A   Mostly Cloudy
1:36 PM 51.8 °F 44.6 °F 76% 29.35 in 10.0 mi SE 15.0 mph 23.0 mph N/A   Mostly Cloudy
1:56 PM 51.8 °F 44.6 °F 76% 29.34 in 10.0 mi SE 21.9 mph 27.6 mph N/A   Mostly Cloudy
2:16 PM 53.6 °F 42.8 °F 67% 29.33 in 10.0 mi SE 19.6 mph 26.5 mph N/A   Mostly Cloudy
2:36 PM 51.8 °F 44.6 °F 76% 29.32 in 10.0 mi SE 16.1 mph 26.5 mph N/A   Overcast
2:56 PM 51.8 °F 44.6 °F 76% 29.31 in 10.0 mi SE 15.0 mph 26.5 mph N/A   Overcast
3:16 PM 51.8 °F 44.6 °F 76% 29.30 in 10.0 mi SE 17.3 mph 23.0 mph N/A   Overcast
3:36 PM 51.8 °F 42.8 °F 71% 29.28 in 10.0 mi SE 17.3 mph 25.3 mph N/A   Overcast
3:56 PM 51.8 °F 42.8 °F 71% 29.27 in 10.0 mi SE 20.7 mph 29.9 mph N/A   Overcast
4:16 PM 51.8 °F 41.0 °F 67% 29.25 in 10.0 mi SE 16.1 mph 23.0 mph N/A   Overcast
4:36 PM 53.6 °F 39.2 °F 58% 29.24 in 10.0 mi SE 15.0 mph 31.1 mph N/A   Overcast
4:56 PM 53.6 °F 41.0 °F 62% 29.23 in 10.0 mi ESE 16.1 mph - N/A   Overcast
5:16 PM 51.8 °F 41.0 °F 67% 29.22 in 10.0 mi SE 10.4 mph 20.7 mph N/A   Overcast
5:36 PM 53.6 °F 39.2 °F 58% 29.20 in 10.0 mi SE 13.8 mph - N/A   Overcast
5:56 PM 53.6 °F 39.2 °F 58% 29.19 in 10.0 mi East 8.1 mph - N/A   Overcast
6:16 PM 53.6 °F 39.2 °F 58% 29.18 in 10.0 mi SE 13.8 mph 19.6 mph N/A   Overcast
6:36 PM 53.6 °F 39.2 °F 58% 29.17 in 10.0 mi ESE 17.3 mph 28.8 mph N/A   Overcast
6:56 PM 53.6 °F 39.2 °F 58% 29.15 in 10.0 mi SE 6.9 mph 18.4 mph N/A   Overcast
7:16 PM 53.6 °F 39.2 °F 58% 29.14 in 10.0 mi ESE 12.7 mph 24.2 mph N/A   Overcast
7:36 PM 53.6 °F 39.2 °F 58% 29.14 in 10.0 mi East 15.0 mph 24.2 mph N/A   Overcast
7:56 PM 53.6 °F 39.2 °F 58% 29.13 in 10.0 mi East 10.4 mph - N/A   Overcast
8:16 PM 53.6 °F 39.2 °F 58% 29.12 in 10.0 mi East 10.4 mph - N/A   Overcast
8:36 PM 53.6 °F 37.4 °F 54% 29.12 in 10.0 mi East 11.5 mph 19.6 mph N/A   Overcast
8:56 PM 53.6 °F 37.4 °F 54% 29.12 in 10.0 mi East 10.4 mph 17.3 mph N/A   Overcast
9:16 PM 53.6 °F 37.4 °F 54% 29.12 in 10.0 mi East 10.4 mph 21.9 mph N/A   Overcast
9:36 PM 53.6 °F 37.4 °F 54% 29.11 in 10.0 mi East 8.1 mph - N/A   Overcast
9:56 PM 53.6 °F 37.4 °F 54% 29.10 in 10.0 mi East 10.4 mph 16.1 mph N/A   Overcast
10:16 PM 53.6 °F 37.4 °F 54% 29.09 in 10.0 mi East 9.2 mph - N/A   Overcast
10:36 PM 53.6 °F 37.4 °F 54% 29.08 in 10.0 mi East 6.9 mph - N/A   Overcast
10:56 PM 53.6 °F 37.4 °F 54% 29.08 in 10.0 mi ESE 10.4 mph 19.6 mph N/A   Overcast
11:16 PM 53.6 °F 37.4 °F 54% 29.08 in 10.0 mi East 8.1 mph - N/A   Overcast
11:36 PM 53.6 °F 37.4 °F 54% 29.07 in 10.0 mi East 5.8 mph - N/A   Overcast
11:56 PM 53.6 °F 37.4 °F 54% 29.07 in 10.0 mi East 5.8 mph - N/A   Overcast